Theta_e
277 276 276 276 276 276 276 276 276 276 276 276 276 276 276 276 276 276 276 276 276 276 277 277 277 277 277 277 276 276 276 276 276 275 275 275 275 275 275 275 276 277 277 278 278 279 279 280 280 281 282 283 284 285 286 287 288 288 289 290 291 292 292 293 293 293 293 295 296 297 298 300 300 299
276 276 276 276 275 275 275 275 276 276 276 276 276 276 276 276 276 275 276 276 276 276 276 277 277 277 277 276 276 276 275 275 275 275 275 275 275 274 274 274 274 275 276 276 277 278 278 279 279 280 281 282 283 284 285 286 287 287 288 289 290 291 291 291 291 291 292 293 294 296 297 299 300 299
276 276 276 275 275 275 275 275 275 275 275 275 276 276 276 276 275 275 275 275 276 276 276 276 276 276 276 276 276 275 275 275 275 275 275 274 274 274 273 273 273 274 275 275 276 277 277 278 279 280 281 282 283 284 284 285 285 286 287 288 289 290 290 290 290 290 291 292 293 295 297 299 299 299
275 275 275 275 275 275 275 274 274 275 275 275 275 275 275 275 275 275 275 274 275 276 276 276 276 276 276 275 275 275 275 275 275 274 274 274 273 273 273 273 273 273 273 274 275 276 277 278 278 279 280 281 282 283 283 284 284 285 286 287 288 288 288 288 289 289 290 291 292 294 296 298 299 299
275 275 275 275 275 275 274 274 274 274 274 274 275 275 275 275 275 275 274 274 274 275 275 275 275 275 275 275 275 275 274 274 274 274 274 273 273 273 273 273 272 272 272 273 274 275 276 277 278 279 280 280 281 282 282 283 283 284 285 285 285 286 287 288 288 288 289 290 291 293 295 297 298 298
275 274 274 274 274 274 274 274 274 274 274 274 274 274 274 274 274 274 274 274 273 274 274 274 274 275 274 274 274 274 274 274 274 273 273 273 273 273 273 272 272 272 272 273 274 275 276 277 278 279 279 279 280 280 281 282 283 283 283 284 284 284 285 286 287 287 288 290 290 292 293 295 297 298
275 274 274 274 274 274 274 273 273 273 273 273 273 273 273 273 273 274 274 274 273 273 273 274 274 274 274 274 274 274 274 273 273 273 273 273 272 273 272 272 272 272 272 273 274 275 276 276 277 277 278 278 279 279 280 281 282 282 283 283 283 284 284 285 286 287 288 289 289 291 292 294 296 297
275 274 274 274 273 273 273 273 273 273 273 273 273 272 272 272 273 273 273 273 273 273 272 273 273 273 274 273 273 273 273 273 273 273 273 272 272 272 272 272 272 271 272 273 273 274 274 275 275 276 277 277 278 279 279 280 281 282 282 283 283 283 284 284 285 286 287 288 289 290 291 293 295 297
275 274 274 273 273 273 273 272 272 272 272 272 272 272 272 272 272 272 272 272 273 272 272 272 273 273 273 273 273 273 273 272 272 272 272 272 272 272 272 272 271 271 271 272 272 272 273 274 274 275 276 277 277 278 279 279 280 281 282 282 282 283 283 284 285 286 287 288 288 289 291 293 295 296
274 274 274 274 273 273 272 272 272 272 272 272 272 271 271 271 271 271 271 271 272 272 271 272 272 272 272 272 272 272 272 272 272 272 272 272 272 272 271 271 271 271 271 271 271 272 272 273 273 274 275 276 276 277 278 279 280 281 281 282 282 283 283 284 285 286 286 287 288 289 290 292 294 295
274 274 274 273 273 273 272 272 272 272 271 271 271 271 271 271 271 271 271 271 271 271 271 271 271 271 272 272 272 272 272 272 272 272 272 271 271 271 271 271 271 271 271 271 271 272 272 272 273 273 274 274 275 276 276 278 279 280 281 281 282 283 284 284 285 286 286 287 288 289 289 291 292 294
274 274 274 274 273 273 272 272 272 272 272 271 271 271 271 271 270 270 270 270 270 270 270 270 270 271 271 271 271 271 271 271 271 271 271 271 271 271 270 270 271 271 271 271 271 272 272 272 273 273 274 275 275 276 276 278 279 280 281 282 283 284 284 284 285 286 286 286 288 288 289 290 291 292
274 273 274 274 273 273 272 272 272 272 272 271 271 271 271 270 270 270 270 269 269 269 269 269 269 270 270 270 271 271 271 271 271 271 271 270 270 270 270 270 271 271 271 271 271 272 272 272 273 274 275 276 277 277 277 278 280 280 281 282 284 284 285 284 285 285 285 286 287 288 289 290 291 291
274 273 273 273 273 273 272 272 272 272 272 271 271 271 271 270 270 270 269 269 269 269 268 268 268 268 268 269 270 270 270 271 271 271 270 270 270 270 270 270 271 271 271 271 271 272 272 272 274 275 277 278 278 278 278 279 279 280 281 283 284 285 285 284 285 286 286 286 287 288 288 289 290 290
273 273 273 273 273 272 272 271 271 271 271 271 271 271 271 270 270 270 269 269 268 268 268 268 268 268 268 269 269 270 270 270 270 270 270 270 270 270 269 269 270 271 271 271 270 272 273 273 274 276 277 278 278 278 279 279 279 280 281 283 284 284 285 284 285 286 286 286 286 287 288 289 289 289
273 273 273 273 273 272 272 271 271 271 271 271 271 271 271 270 270 270 270 269 268 268 268 268 268 268 268 268 269 269 269 269 270 270 270 270 269 270 269 269 270 271 271 271 270 272 274 274 274 276 277 278 279 279 279 279 280 281 282 283 284 284 284 285 285 286 286 286 286 287 288 288 288 288
273 273 273 272 272 272 272 271 271 270 270 271 271 271 271 271 271 271 271 270 269 269 268 268 268 268 268 268 269 269 269 269 269 269 269 269 269 270 269 269 270 271 271 271 270 271 274 275 275 276 278 278 279 279 280 280 281 282 282 283 283 284 284 284 285 285 286 286 286 286 287 287 287 288
273 273 273 272 272 272 271 271 270 270 270 270 270 271 271 271 271 271 272 272 271 270 269 269 268 268 269 269 269 270 269 269 269 269 269 270 270 270 270 270 271 271 271 271 270 271 274 275 275 276 278 278 279 279 280 280 281 282 282 283 283 283 284 284 285 285 286 286 286 286 286 287 287 287
273 273 273 272 272 271 271 271 270 270 270 270 270 270 270 270 271 271 271 271 272 272 271 270 270 270 270 270 270 270 270 269 269 269 269 270 270 270 270 270 271 271 272 272 271 271 274 275 274 276 277 278 279 279 280 281 281 281 282 282 282 282 283 284 284 285 286 286 286 286 286 287 287 287
273 273 272 272 272 271 271 271 271 270 270 269 269 269 269 269 270 270 270 270 271 272 272 272 272 272 271 271 271 271 270 270 270 269 269 270 270 270 270 270 271 272 272 272 271 271 273 274 274 275 276 277 279 279 280 280 281 281 282 282 281 281 283 284 284 285 286 286 286 286 286 287 288 287
273 273 272 272 271 271 271 271 271 271 270 269 268 269 268 269 269 269 269 270 271 272 272 272 272 272 272 272 272 271 271 270 270 269 269 270 270 270 269 269 270 271 272 273 272 272 272 274 275 275 276 277 279 279 279 280 281 281 282 282 281 281 283 284 284 284 285 286 286 285 286 287 288 287
273 273 272 272 271 271 271 271 271 272 271 269 268 268 268 268 268 268 268 269 269 271 272 273 273 273 273 273 272 272 272 271 270 270 270 270 270 269 269 268 269 271 273 274 273 272 273 274 275 275 276 277 278 278 278 279 280 281 282 282 282 282 283 284 284 284 285 285 286 286 285 286 287 287
272 272 272 271 271 271 272 271 271 272 272 271 269 269 268 268 268 268 268 268 268 269 271 272 274 274 274 273 273 273 273 273 272 271 271 271 271 270 270 269 269 271 273 274 273 273 273 274 274 274 274 275 277 278 278 279 279 280 281 282 282 282 283 283 284 284 284 285 286 286 286 285 286 287
272 272 271 271 271 271 271 271 272 273 273 272 270 269 269 268 268 268 268 268 268 269 270 271 273 274 274 274 273 273 273 273 273 273 272 272 271 271 271 271 270 271 273 274 274 274 274 274 274 274 274 274 275 276 277 278 279 279 280 282 283 283 283 283 283 283 283 284 285 286 286 285 285 286
271 272 271 271 271 271 272 272 272 273 273 273 271 270 269 269 269 269 268 268 268 270 271 271 272 272 273 273 273 273 273 273 273 273 273 273 273 272 272 272 271 272 273 274 274 274 274 274 274 274 274 273 274 275 276 277 278 279 280 281 282 283 283 283 283 283 283 284 285 286 287 287 286 286
271 271 271 271 271 271 272 273 273 273 273 273 272 271 271 271 270 269 269 268 268 269 270 271 271 271 272 272 272 273 273 273 273 274 274 274 274 274 274 273 273 273 274 274 274 273 274 274 273 273 273 273 274 274 275 277 278 278 280 281 281 282 283 283 283 284 284 283 284 285 286 287 287 286
270 271 271 271 270 270 272 273 273 273 273 273 273 272 272 272 271 270 269 269 269 269 270 271 271 271 271 271 271 272 272 273 273 274 274 274 274 274 274 274 274 274 274 274 274 274 274 273 273 273 273 273 274 275 275 276 277 277 279 280 281 282 283 283 283 284 284 284 284 285 286 287 287 287
270 271 271 271 270 271 272 273 273 274 273 273 273 273 273 273 272 271 270 270 269 270 270 271 271 271 271 271 271 271 272 273 273 274 274 274 274 274 274 274 274 274 274 274 274 274 273 273 273 273 274 273 274 274 275 276 276 276 277 278 281 282 282 283 284 284 284 284 284 284 285 286 286 287
271 271 271 271 271 271 272 273 273 273 273 273 274 274 274 273 273 272 271 270 270 270 271 271 271 271 271 270 271 272 272 273 273 273 273 274 274 274 274 274 273 273 274 274 274 274 273 273 274 274 274 274 274 274 275 275 276 276 276 276 279 281 282 282 283 284 284 284 284 284 285 286 286 287
271 271 272 272 271 272 272 273 273 273 273 273 274 274 274 274 273 273 272 271 271 271 271 271 271 271 271 270 271 271 272 272 273 273 273 273 273 274 274 274 273 273 274 274 274 274 274 274 274 274 274 274 274 274 275 275 276 276 276 276 277 279 281 282 282 283 283 283 284 285 285 285 286 286
271 272 272 272 272 272 272 272 273 273 273 273 273 273 274 274 274 273 272 272 271 271 271 272 271 271 270 270 270 271 271 273 273 273 273 274 274 274 274 273 273 273 274 274 274 274 274 274 274 274 274 274 274 275 275 276 276 275 276 277 277 278 280 282 282 283 283 283 283 284 284 284 285 285
269 271 272 272 272 272 272 272 272 273 273 273 273 273 273 274 274 274 273 272 272 272 272 272 271 271 270 270 271 271 271 273 274 274 274 274 274 274 273 272 272 273 274 274 275 275 275 275 274 274 274 274 275 275 275 276 276 275 275 277 278 279 280 282 282 282 282 282 283 283 283 283 283 283
269 271 272 272 272 272 272 272 272 272 273 273 273 273 273 274 274 274 274 273 272 272 272 272 271 271 271 271 271 271 271 273 274 274 274 274 274 274 273 272 272 272 273 274 275 275 275 275 275 274 274 275 275 276 275 275 276 275 275 276 277 279 280 281 281 282 282 282 281 281 282 282 282 283
268 270 272 272 272 272 272 272 272 272 272 273 273 273 273 274 275 275 274 273 273 272 272 272 272 271 271 271 271 272 272 274 275 275 275 275 274 273 273 273 272 273 273 274 274 275 275 275 275 274 275 275 275 275 275 275 275 275 275 275 276 278 279 280 281 281 281 281 281 280 280 281 281 282
268 270 271 272 272 272 272 271 272 272 272 272 273 273 273 273 274 275 275 274 273 273 273 272 272 272 272 272 272 273 274 275 275 275 275 275 275 274 274 274 274 274 274 273 274 275 275 276 275 275 275 275 275 275 275 275 275 275 274 275 276 277 279 280 281 281 281 281 281 280 279 279 280 281
268 269 271 271 271 271 271 271 271 271 272 272 273 273 274 274 274 275 275 274 274 273 273 273 273 273 273 273 273 274 275 275 275 275 275 275 275 275 275 275 275 274 274 274 275 275 276 276 276 276 275 274 274 275 275 275 276 275 275 276 277 278 279 280 280 281 281 281 280 280 279 279 279 280
268 269 270 271 270 270 271 271 271 271 271 272 272 272 273 274 274 275 275 275 274 274 273 273 273 273 273 274 274 275 275 275 275 274 275 275 276 276 276 276 276 276 275 275 276 276 276 276 276 276 275 275 276 277 277 276 276 276 276 276 276 277 279 280 280 280 281 280 280 280 279 279 279 280
268 268 269 270 270 270 270 270 270 270 270 271 271 271 272 273 275 275 275 275 275 274 274 274 274 274 274 274 275 275 274 274 274 274 274 275 275 275 276 276 276 276 276 277 277 276 276 276 275 275 275 276 276 277 277 276 276 277 277 276 276 277 278 279 279 280 280 280 279 279 279 279 279 279
267 268 268 269 269 270 270 270 270 270 270 270 271 271 271 273 275 275 275 275 275 274 274 274 274 274 274 274 275 274 274 274 274 274 274 274 274 275 275 275 275 276 276 277 277 277 277 276 276 276 276 276 276 277 277 277 277 277 277 277 277 277 278 279 279 279 279 279 279 279 279 279 279 279
265 267 267 268 268 269 269 270 270 270 270 270 270 270 271 272 274 275 275 275 275 274 274 274 274 274 274 275 274 274 273 273 273 273 273 273 274 274 274 274 275 275 275 276 276 276 277 277 277 277 277 277 277 277 277 277 277 277 277 278 278 277 277 278 279 279 279 279 279 279 279 279 279 279
262 264 266 267 267 268 268 269 269 269 269 270 270 271 271 272 274 275 275 275 275 274 274 274 274 274 274 274 274 273 273 272 272 272 272 272 273 274 274 274 274 274 275 275 275 276 276 277 277 277 277 277 277 277 277 278 277 277 277 278 278 277 277 278 279 279 279 279 279 279 279 278 278 278
259 262 264 266 267 267 268 268 268 268 269 269 270 271 272 272 273 274 274 274 274 274 274 273 274 274 274 274 273 273 272 272 272 272 272 272 272 273 273 273 274 274 274 275 275 275 276 276 277 277 277 277 277 277 278 278 277 277 277 278 277 277 277 278 278 279 279 279 279 279 279 279 278 278
258 259 262 264 266 267 267 267 268 268 269 269 270 271 272 272 273 273 273 273 273 273 273 273 274 274 274 273 273 273 272 272 272 272 272 272 272 272 272 273 273 273 273 274 275 275 275 276 276 276 277 277 277 277 278 278 277 277 277 277 277 277 277 278 278 278 279 279 279 279 279 279 279 279
257 257 259 261 263 265 266 267 267 268 269 270 270 270 271 272 272 273 273 273 273 273 273 274 274 274 273 273 273 273 273 272 272 272 272 272 272 272 272 272 272 272 273 273 273 274 275 275 275 276 277 277 277 277 278 278 277 277 277 277 277 278 278 278 278 278 278 278 278 279 279 279 279 279
256 256 257 258 260 262 264 265 266 267 268 269 270 270 271 271 272 272 272 272 272 273 274 274 273 273 273 273 273 272 272 272 272 271 271 271 271 271 271 271 272 272 272 273 273 273 274 274 275 276 277 277 277 277 277 278 278 277 277 277 277 277 277 277 278 278 278 278 278 279 279 279 279 280
Wind_Speed
36 35 34 33 33 32 30 30 30 29 29 29 27 25 21 14 8 6 7 7 6 11 17 18 18 20 21 21 19 18 17 15 15 17 18 19 20 22 24 24 22 22 23 25 26 27 27 27 27 28 28 28 27 27 27 27 27 27 28 28 28 28 29 30 30 30 30 30 28 28 29 32 38 42
36 34 33 33 33 32 29 29 30 28 28 29 28 27 26 23 16 8 7 9 8 10 15 18 17 17 17 18 17 17 16 15 16 18 20 21 23 25 26 26 24 23 24 25 26 27 28 28 28 28 28 28 28 27 27 27 27 27 28 28 28 28 28 27 28 29 29 30 27 27 30 32 36 41
36 34 33 33 33 32 30 29 29 28 28 28 28 28 27 27 26 19 10 8 10 12 14 17 17 16 16 16 17 17 17 17 18 20 21 22 24 25 26 26 25 23 23 24 25 26 27 27 27 27 27 27 27 27 27 27 27 28 28 28 28 28 27 26 27 29 29 29 27 26 29 32 35 40
36 34 34 34 34 32 30 30 29 29 28 28 28 28 27 27 28 26 18 9 9 13 15 16 16 17 16 17 18 19 19 19 19 21 22 22 23 24 24 25 24 23 22 22 23 24 25 25 26 26 26 26 26 26 27 27 27 28 27 27 27 27 26 26 27 29 29 29 27 26 28 31 34 38
36 35 34 34 34 33 31 30 30 29 29 28 27 27 27 27 27 27 22 13 9 13 17 17 17 18 18 19 20 20 20 20 20 21 21 21 22 23 23 24 24 24 22 21 21 22 23 24 24 24 24 25 25 25 26 27 27 27 27 27 27 26 26 25 25 27 28 28 26 25 26 28 32 36
36 35 34 34 33 32 31 31 30 30 29 28 28 27 27 26 26 27 25 19 11 11 16 19 19 20 20 21 21 20 20 20 19 20 20 20 21 22 23 24 24 24 22 20 20 20 21 22 22 23 23 24 25 25 26 26 26 26 26 27 26 26 25 24 24 26 27 26 26 25 25 26 30 35
36 35 34 34 32 30 30 31 30 30 30 29 29 28 27 27 26 26 27 24 16 12 14 18 19 19 20 21 21 20 19 18 18 19 19 20 21 22 23 24 24 23 21 20 20 20 20 21 21 22 23 23 24 24 24 25 24 25 25 25 25 25 24 23 23 24 25 25 25 24 24 26 28 34
37 36 35 34 32 31 30 30 30 30 30 29 29 28 27 27 27 26 27 27 23 17 14 16 18 19 20 21 20 19 17 17 17 18 19 20 21 22 24 24 24 23 20 19 20 21 21 22 22 22 23 23 23 23 24 24 23 23 24 24 24 24 23 22 22 23 23 24 24 23 23 25 27 31
37 36 35 34 32 31 30 29 28 29 30 30 29 28 27 26 26 26 26 27 26 23 18 16 17 18 18 19 18 17 17 16 17 18 19 20 21 22 23 23 23 22 20 20 21 21 21 21 22 22 22 23 23 23 23 23 22 22 22 23 23 22 21 20 20 21 22 24 24 23 22 23 26 29
37 36 35 34 33 31 31 29 28 29 29 30 29 28 27 27 26 25 25 26 26 25 22 20 18 17 17 17 17 16 17 17 17 18 19 20 20 20 21 22 22 21 20 21 20 19 19 20 20 22 22 23 23 23 23 22 21 21 21 21 21 21 20 18 18 20 22 23 23 22 22 22 24 26
37 37 36 34 32 31 31 31 30 29 29 29 29 29 28 27 26 25 24 24 24 23 21 20 19 18 18 18 17 17 16 15 16 17 17 18 19 18 18 21 22 21 20 20 18 17 18 19 20 21 22 22 22 22 22 21 20 19 18 18 18 19 18 17 17 18 21 23 22 21 21 20 22 23
36 37 36 35 33 33 33 32 32 31 30 29 28 28 28 27 26 24 23 23 23 22 20 19 19 18 18 17 16 16 14 13 15 17 15 16 17 17 19 21 21 21 20 19 17 18 19 20 19 18 18 18 17 18 19 19 18 16 16 16 17 18 17 16 16 17 19 21 21 20 20 18 20 21
36 36 36 35 34 34 34 33 33 33 32 30 29 28 28 27 26 24 23 22 21 20 18 17 17 15 15 16 16 15 16 16 17 16 14 15 17 18 20 22 20 18 16 16 19 21 20 18 16 14 14 13 11 13 14 15 15 14 14 16 17 17 16 15 15 17 18 20 20 19 19 17 18 20
34 35 36 35 34 34 34 33 33 32 32 32 31 30 29 28 27 25 23 22 22 19 16 16 16 12 12 16 17 17 19 19 18 16 15 15 16 15 16 18 18 13 11 15 22 22 16 14 13 12 11 11 9 11 12 12 13 13 14 16 17 16 15 13 14 15 16 18 18 18 18 16 16 19
33 34 35 34 33 32 32 32 31 32 32 31 30 30 30 29 28 27 25 23 23 21 18 17 17 15 15 18 19 19 20 19 18 18 16 14 13 11 9 10 12 11 11 16 23 21 12 10 13 13 11 11 10 10 11 11 12 14 15 16 16 16 14 11 12 14 14 15 16 16 16 15 14 18
33 33 33 33 32 32 31 31 30 30 31 29 27 27 27 26 26 27 27 26 25 24 21 19 19 19 19 19 20 20 19 19 19 18 17 14 13 12 9 9 11 13 14 17 21 20 11 8 15 15 11 11 11 10 9 9 11 14 15 14 14 14 13 11 11 13 12 12 13 14 14 14 14 15
33 33 33 32 31 32 32 31 29 29 29 28 26 26 25 25 24 24 25 25 26 27 25 23 23 24 22 21 22 22 19 19 19 17 16 15 14 13 12 13 15 16 16 16 18 17 10 11 17 16 11 11 10 9 10 9 10 13 13 13 13 12 13 11 10 12 11 10 11 12 12 14 14 14
34 34 34 32 31 32 32 31 29 29 29 28 27 27 27 26 25 24 24 24 24 26 27 27 26 26 25 24 22 20 17 18 18 16 15 14 12 12 11 12 15 15 14 12 10 10 10 14 18 17 14 12 9 10 12 11 11 13 13 12 12 11 12 12 10 10 10 7 7 9 10 12 14 14
33 34 34 33 31 31 31 31 31 30 30 28 28 27 27 27 26 26 26 25 24 23 25 27 26 23 22 21 19 16 15 15 14 13 13 11 9 9 9 12 15 12 8 6 4 7 10 16 18 18 16 13 9 11 15 13 12 13 14 13 11 11 11 11 9 8 8 6 5 7 8 10 13 14
29 32 32 31 31 30 31 32 31 30 29 29 27 26 26 27 27 27 26 24 23 22 21 23 23 21 19 16 13 12 12 12 11 10 11 10 10 9 8 11 12 8 5 6 6 7 10 16 17 18 18 13 9 13 17 16 14 14 15 12 9 9 9 9 9 8 7 6 5 5 6 7 10 13
26 29 29 29 30 30 31 32 30 27 26 27 27 25 25 25 26 27 26 24 23 22 21 19 18 18 19 17 15 13 11 10 11 12 14 14 13 10 5 5 7 6 6 7 4 6 9 15 17 19 19 12 6 12 19 19 17 16 15 9 5 5 7 8 7 7 7 7 5 5 5 5 7 11
23 25 26 27 29 30 32 33 29 26 26 27 27 26 25 23 24 26 26 24 23 22 22 21 20 19 18 17 16 16 14 13 13 15 17 16 14 12 9 6 6 7 7 3 1 3 9 14 16 19 18 10 6 13 20 21 21 19 16 10 4 3 6 7 7 6 6 6 6 5 4 4 5 8
19 22 24 26 28 31 33 32 28 26 26 27 27 27 24 22 23 25 24 24 24 22 22 22 22 21 19 17 17 17 16 16 16 17 17 16 15 14 14 11 5 4 3 0 1 5 10 12 15 16 13 6 7 15 20 20 22 22 18 12 6 4 5 6 6 7 6 5 5 4 4 4 3 5
18 19 21 23 26 28 29 28 26 26 26 26 27 27 25 23 24 23 22 22 22 21 22 22 20 18 18 19 20 20 18 17 18 18 18 18 17 16 15 12 8 5 4 4 6 9 9 9 11 13 11 5 6 14 21 20 20 22 21 17 11 7 6 6 6 7 7 5 4 3 3 4 3 3
18 19 21 23 26 28 27 25 25 26 27 27 27 28 28 25 22 19 20 22 22 20 20 22 21 18 16 15 17 19 20 19 19 20 21 20 20 19 17 14 12 11 11 9 8 9 7 7 10 13 14 9 6 13 20 20 20 23 22 20 17 13 9 8 7 6 6 4 4 3 1 2 3 2
19 20 23 25 27 28 27 26 26 26 27 27 27 28 28 23 19 18 19 21 22 20 19 20 21 21 19 17 15 16 19 20 21 22 22 21 20 20 19 17 14 13 13 10 8 7 7 7 9 12 13 11 9 13 15 15 19 24 23 20 20 18 14 10 8 7 5 2 3 1 1 1 2 2
21 23 24 25 25 26 26 27 27 27 27 25 25 26 25 21 20 21 20 20 21 21 19 19 20 20 20 19 18 18 19 20 20 21 22 21 19 18 17 17 16 15 15 14 12 11 10 10 10 12 12 11 10 11 10 10 16 23 24 21 20 20 17 12 9 7 4 2 1 1 2 2 2 4
23 24 26 25 24 24 26 27 28 28 26 24 23 23 22 22 22 21 21 22 21 19 19 19 19 20 21 20 21 23 23 22 21 20 21 21 20 19 18 18 19 19 18 16 15 14 13 12 12 11 11 11 9 7 8 11 16 20 23 22 20 20 19 15 10 6 4 3 2 2 3 3 3 4
27 26 25 24 23 24 26 27 27 26 24 23 23 22 21 22 24 23 22 22 20 18 19 20 20 20 20 20 21 23 23 23 23 23 22 22 21 20 20 20 20 19 18 15 14 12 12 12 10 8 8 9 9 9 11 13 16 18 20 20 18 17 19 17 11 7 6 6 7 7 6 5 4 4
24 27 24 22 23 25 25 25 24 21 20 21 21 21 21 22 24 25 23 22 21 19 19 20 20 19 19 19 18 18 19 21 23 23 23 22 21 20 19 18 19 18 17 14 12 10 9 8 7 6 7 8 8 10 11 12 16 19 19 19 17 15 16 16 14 13 13 14 15 14 11 9 7 5
10 20 23 22 24 24 23 23 21 19 18 18 18 18 20 21 23 26 27 25 24 21 20 19 19 18 17 15 14 15 16 18 19 19 18 17 16 16 15 14 15 16 15 12 10 9 8 7 7 7 8 8 8 9 10 11 15 18 18 18 16 14 14 15 14 14 15 18 20 19 17 16 15 13
1 11 21 23 23 22 20 20 20 18 17 17 16 16 17 18 21 26 28 27 23 20 19 19 17 17 16 15 14 15 16 16 16 14 13 12 12 12 12 11 10 11 10 9 8 8 8 7 7 8 8 8 9 10 12 13 14 14 15 16 17 16 17 16 14 13 14 16 19 20 19 20 21 22
2 8 18 21 19 18 17 15 15 15 16 16 16 15 15 16 19 24 26 25 22 20 20 19 17 16 16 16 16 14 13 13 12 11 12 12 11 11 11 11 9 7 7 8 9 9 8 7 7 7 6 6 7 8 9 12 13 12 11 13 15 17 18 16 13 13 14 16 18 20 19 18 19 21
2 5 14 16 15 16 15 13 12 12 12 13 12 12 13 13 16 21 25 24 23 22 21 20 18 16 16 17 16 14 13 11 9 9 11 12 12 12 12 11 9 7 6 6 7 8 8 7 8 8 7 6 6 7 8 11 14 13 9 9 11 13 15 14 12 12 13 15 17 19 19 18 17 17
1 2 9 13 13 15 15 13 12 11 10 9 8 9 13 14 14 18 24 25 23 23 22 19 18 17 17 17 17 16 14 12 11 9 9 11 13 14 13 11 10 9 8 7 7 8 9 9 9 8 5 3 3 5 6 8 10 11 7 6 7 9 12 12 9 10 12 14 16 18 18 18 17 15
4 2 8 11 12 14 14 12 12 11 9 9 6 5 10 14 14 15 23 27 24 23 22 21 19 19 18 18 17 17 15 13 12 10 8 9 12 13 12 11 10 9 9 9 9 8 8 9 10 9 4 1 1 2 2 1 3 5 5 5 5 5 8 10 8 10 12 13 15 16 16 16 16 16
7 6 9 12 12 13 14 12 11 10 8 9 9 6 6 11 14 15 20 26 26 24 24 23 21 20 20 19 18 17 16 14 12 10 8 8 9 10 10 10 10 10 10 11 9 9 10 10 11 10 5 3 2 2 3 1 1 0 3 5 4 2 5 7 7 10 12 12 13 14 15 15 16 16
8 10 10 11 12 13 13 11 10 9 7 8 11 10 8 7 13 17 18 23 25 24 24 24 23 21 21 20 19 18 16 13 12 11 11 10 10 10 9 8 8 8 8 7 6 8 10 12 13 13 8 5 3 2 1 1 3 2 1 4 4 2 1 3 6 10 11 11 11 13 14 15 15 16
7 8 11 11 11 12 11 9 7 7 7 7 10 11 9 6 10 18 20 21 23 23 23 23 23 22 22 22 20 18 16 14 13 13 12 10 10 9 8 8 7 7 6 5 3 4 7 11 13 14 11 7 5 4 2 1 1 2 2 2 3 2 3 2 3 8 10 9 10 12 12 12 13 13
12 8 7 7 7 8 8 7 4 3 5 7 10 12 10 8 9 18 21 21 22 23 22 23 23 23 22 22 20 18 16 15 15 14 12 10 8 8 8 8 8 7 6 5 3 3 5 8 8 9 9 8 8 6 4 3 3 2 2 2 1 2 7 6 2 6 9 8 7 8 8 8 9 10
21 16 10 5 3 3 2 2 0 2 2 3 5 9 10 9 10 18 21 21 22 23 22 22 23 24 23 22 19 17 16 15 13 13 13 11 9 8 8 9 9 8 7 6 5 5 4 5 5 7 8 9 8 5 2 2 2 1 4 4 2 4 10 8 2 2 5 4 4 7 8 7 7 9
25 21 15 9 6 5 4 3 4 5 6 6 5 4 7 10 11 16 19 20 22 23 23 23 24 24 23 20 19 17 17 16 15 14 13 12 11 9 8 8 9 9 8 7 7 6 5 5 5 7 8 9 8 4 3 3 3 2 6 6 5 6 10 9 4 3 4 5 4 6 6 5 5 5
25 24 20 14 8 6 5 5 6 5 4 5 5 5 5 9 11 14 18 20 21 22 23 24 24 23 21 19 18 17 16 16 16 15 14 13 12 10 8 7 7 6 6 6 6 5 6 6 5 4 6 9 10 8 5 4 3 2 4 5 7 8 9 8 6 4 4 4 2 3 4 5 4 3
25 24 22 19 14 10 7 6 6 7 4 3 5 6 6 7 12 15 18 21 22 24 25 24 23 21 19 19 18 16 15 14 15 14 12 11 10 8 8 7 6 6 6 6 5 5 5 6 5 4 5 7 10 11 8 5 4 3 2 4 8 11 11 10 8 7 6 4 1 2 4 5 5 5
25 23 23 22 20 16 12 9 6 6 4 2 5 7 6 8 13 17 19 21 23 25 25 24 22 20 19 19 18 16 14 13 12 11 10 9 8 8 8 7 7 7 7 6 6 6 6 7 6 5 5 6 8 11 10 7 6 5 2 2 6 11 12 10 8 8 8 5 3 4 5 4 4 5
Wind_Direction
244 244 245 245 245 247 245 243 243 243 243 242 241 239 235 234 247 267 262 253 240 232 230 234 241 241 243 246 247 248 250 252 260 267 271 278 283 288 294 297 296 292 291 291 291 292 293 295 295 294 294 294 293 293 292 292 291 290 290 290 290 292 294 298 303 307 307 308 308 303 296 291 294 307
242 241 243 243 244 246 244 244 244 243 243 242 240 240 238 235 235 243 263 259 243 231 226 228 235 237 235 238 241 241 243 250 262 269 274 280 286 291 295 295 293 292 291 290 290 290 291 292 292 292 292 292 292 291 291 291 292 291 290 291 291 291 294 301 307 309 308 310 312 305 297 291 291 303
242 239 241 241 243 244 243 243 244 242 242 241 240 240 238 236 235 236 246 261 248 235 232 232 234 236 236 236 237 239 246 254 262 269 275 282 288 293 295 293 293 294 292 291 290 289 289 290 290 290 291 291 291 290 290 290 292 293 291 291 291 291 294 300 305 309 310 313 316 309 299 292 291 301
242 238 239 240 242 242 242 242 242 241 241 240 239 240 238 236 237 235 235 249 251 238 239 241 238 238 241 239 239 243 250 256 263 271 278 286 292 295 296 295 295 296 294 291 290 290 290 290 289 289 290 290 291 290 289 291 292 293 293 292 293 294 296 298 300 306 310 314 319 313 303 296 292 299
242 239 238 239 241 240 239 240 240 239 239 238 237 238 237 236 236 233 232 241 256 246 242 243 243 246 246 243 243 246 251 257 265 274 281 288 293 296 297 297 299 300 296 292 292 292 291 290 289 288 289 289 291 290 290 292 293 293 293 293 295 295 296 297 298 303 309 313 319 319 310 302 296 299
243 241 239 239 239 238 238 238 239 238 238 236 236 235 235 235 236 234 233 238 250 250 245 244 246 248 246 243 244 246 252 261 269 275 281 288 293 296 298 300 302 301 297 293 293 293 292 291 289 289 289 289 290 291 291 293 294 294 294 294 295 294 294 297 298 301 307 310 317 323 318 309 300 299
241 241 240 239 237 235 236 237 237 237 237 236 235 236 235 236 237 236 236 238 243 250 249 244 243 243 242 241 244 249 255 263 269 274 280 287 292 296 297 300 302 301 298 294 294 293 292 291 290 289 290 290 290 290 292 294 295 296 296 295 295 294 294 297 298 300 304 309 316 323 322 316 306 299
239 239 238 238 236 232 232 234 235 235 235 234 234 235 236 236 238 238 238 238 241 246 249 246 243 242 243 243 245 249 254 259 266 273 280 286 290 294 297 300 303 302 298 295 294 293 290 288 288 288 289 289 289 290 290 292 294 296 297 297 296 295 295 297 299 299 301 307 315 322 323 319 312 304
239 237 237 238 235 231 229 230 232 233 234 234 233 234 235 235 238 239 239 240 241 242 244 246 246 243 243 243 244 246 250 257 265 270 278 283 288 293 296 299 304 304 300 299 298 295 290 286 285 286 287 288 288 289 289 290 292 294 297 299 298 297 297 298 300 300 301 305 312 321 326 322 317 312
240 238 237 238 236 231 228 227 229 231 232 233 232 232 234 235 237 237 238 240 241 241 242 244 244 240 238 238 239 245 250 256 263 270 277 281 286 291 295 300 305 304 303 304 303 299 294 289 287 285 286 287 286 286 286 287 288 291 295 298 299 299 299 299 301 300 300 303 308 318 327 327 325 319
242 239 238 237 236 233 230 229 230 230 230 231 232 233 234 235 235 234 236 238 238 239 239 240 240 239 240 239 241 248 253 253 259 265 272 280 285 289 295 301 304 304 304 304 300 295 294 291 288 284 283 283 282 281 280 278 281 288 294 298 301 302 300 300 301 299 299 302 306 315 326 332 333 327
241 240 239 238 237 235 234 233 233 232 231 228 229 232 233 234 233 232 233 234 234 235 236 237 239 240 241 240 241 244 243 240 250 258 262 273 281 288 296 299 301 303 304 304 300 298 300 296 290 285 282 280 278 277 274 272 276 286 294 299 304 305 303 300 299 297 299 303 305 312 323 333 340 335
240 239 238 239 239 238 237 236 236 236 234 230 228 230 231 230 230 230 230 230 229 230 233 235 236 236 236 235 232 231 230 235 248 256 258 264 274 287 295 295 296 300 302 306 308 307 308 306 298 291 290 288 286 283 275 270 276 287 296 302 307 308 304 301 298 296 299 304 304 308 320 333 345 345
239 237 236 238 239 240 239 238 237 236 236 235 234 234 234 230 227 225 225 226 227 226 229 231 229 228 234 233 229 231 237 242 249 252 252 259 273 287 294 294 296 301 306 315 316 313 315 315 305 303 306 306 304 297 286 277 282 294 301 303 308 311 306 302 300 298 298 304 305 305 316 332 347 353
238 235 234 235 236 238 237 236 236 236 235 235 234 236 237 236 232 228 225 224 224 223 227 231 226 225 234 237 235 237 243 244 245 249 250 255 267 274 282 293 299 305 315 320 317 315 320 320 311 312 318 319 319 313 302 292 291 301 305 303 309 315 311 300 297 300 300 303 306 305 311 329 347 355
235 233 231 232 232 234 234 233 232 232 232 230 227 228 231 232 232 233 231 230 227 223 225 229 228 228 234 239 239 238 239 241 242 246 248 248 253 255 255 268 281 296 312 319 314 311 317 329 321 321 327 330 333 334 327 315 306 307 307 305 311 320 319 307 295 298 303 304 306 307 309 325 344 353
232 230 228 228 228 230 232 230 228 228 228 226 223 223 225 226 226 229 232 233 231 229 229 229 231 232 233 236 240 240 239 239 237 237 240 241 243 246 252 263 275 293 308 312 308 304 316 343 331 326 337 342 343 353 355 343 324 317 312 307 312 322 326 318 300 294 301 303 306 313 316 324 337 347
230 228 226 224 224 226 227 226 225 224 225 224 223 223 224 227 227 228 231 233 232 230 230 232 236 238 237 238 245 248 244 240 236 232 234 234 235 242 254 268 280 293 302 303 299 292 314 346 338 328 341 347 347 3 6 358 341 327 317 310 311 320 327 325 310 296 300 307 311 321 327 330 334 341
232 227 226 222 221 222 223 224 223 223 222 221 221 221 222 225 226 227 230 233 233 229 228 232 238 243 244 244 248 251 246 243 240 235 234 231 231 246 262 272 280 291 297 289 277 273 311 344 340 329 338 344 348 10 11 5 355 337 325 314 305 309 317 321 318 307 301 306 310 320 332 332 331 335
238 228 225 220 219 219 222 225 223 220 220 218 216 218 221 223 225 227 228 230 233 233 232 235 240 244 250 251 248 245 242 238 229 221 228 232 230 243 267 276 280 294 312 300 277 260 304 342 341 328 334 340 345 8 13 10 6 351 336 321 298 298 309 311 316 317 308 304 298 308 327 325 321 327
243 228 223 219 218 217 221 226 220 211 212 212 211 214 218 221 224 228 228 227 229 231 232 235 238 242 245 243 237 232 228 222 208 202 215 224 221 224 246 268 274 295 322 320 280 244 298 343 347 332 333 339 345 4 8 9 12 7 354 337 297 293 310 309 308 305 300 302 294 286 310 319 319 326
247 230 224 219 218 218 223 226 219 208 205 205 206 211 214 218 222 225 225 224 225 229 232 231 229 230 232 230 223 219 214 208 201 200 209 213 208 208 215 226 264 302 318 331 115 261 312 345 356 345 340 341 347 360 5 8 11 12 10 4 345 320 329 327 324 314 296 293 294 280 275 295 317 330
256 238 229 221 219 222 225 224 216 210 206 201 203 209 209 212 220 222 220 219 220 226 231 230 225 222 222 219 215 213 210 205 205 210 214 213 206 208 217 222 240 311 319 153 30 331 327 343 356 358 355 344 335 352 2 8 8 9 13 15 10 355 347 345 346 341 322 294 291 284 253 257 289 314
257 243 235 225 220 221 222 220 214 213 210 203 202 205 205 210 218 218 216 215 214 217 223 225 224 219 213 208 206 206 206 205 209 218 224 224 221 221 226 225 220 235 246 258 304 313 319 336 344 352 358 341 311 333 345 356 4 7 12 15 12 4 357 356 358 351 335 302 283 289 249 223 234 268
250 239 236 231 224 219 218 218 215 215 215 207 202 204 209 215 216 210 209 211 209 210 216 220 224 226 221 211 204 203 203 201 206 216 224 228 232 235 237 231 224 239 260 275 289 295 307 330 335 339 344 339 313 319 329 341 355 3 9 14 14 12 7 358 354 351 338 299 271 293 287 207 206 224
245 240 238 234 228 221 219 219 218 218 219 213 206 206 211 215 211 203 205 206 204 207 212 214 221 228 230 227 222 215 210 205 205 212 218 225 233 240 243 241 234 244 267 281 285 287 298 314 324 331 334 331 324 321 322 330 346 359 10 17 16 15 11 359 355 0 358 311 260 284 57 169 179 152
237 239 240 237 229 222 221 223 220 219 220 217 212 209 208 208 206 201 199 199 200 204 207 209 216 223 226 228 229 228 224 217 211 211 215 219 227 236 244 249 251 257 268 275 276 280 287 295 307 316 318 317 321 324 323 324 336 349 1 9 13 15 12 4 1 11 28 41 256 209 124 118 128 116
234 237 238 235 226 221 223 225 223 220 218 215 214 214 209 205 201 197 193 193 195 198 202 204 210 216 220 224 228 229 230 229 225 224 224 227 233 240 246 253 260 264 265 265 267 271 276 283 293 306 311 312 316 318 320 322 326 336 347 355 6 17 16 10 7 15 40 62 79 122 117 92 83 88
231 235 235 227 220 219 223 226 228 224 217 213 214 215 212 204 196 192 191 191 191 195 201 203 206 210 214 221 226 227 227 230 232 233 235 238 240 243 247 252 256 259 259 259 259 260 265 274 285 299 307 308 309 308 310 316 320 327 336 342 350 6 15 17 24 42 61 77 84 86 84 78 72 65
225 230 229 219 214 218 221 224 228 224 217 217 217 214 211 205 195 189 189 190 191 196 200 200 203 208 213 220 224 223 221 223 227 230 233 237 239 240 242 244 245 247 249 249 249 249 252 257 262 271 284 290 296 301 302 307 313 319 330 341 344 354 11 25 41 57 65 74 80 78 72 74 81 80
216 221 220 211 210 215 218 219 221 217 213 217 220 216 212 207 195 189 191 196 198 199 198 197 202 209 214 216 216 216 217 219 220 222 224 227 229 229 228 229 236 242 243 239 236 234 234 231 230 241 261 273 283 292 297 300 306 315 330 346 349 349 3 24 46 60 63 68 75 74 68 65 70 77
230 205 206 204 205 209 212 212 211 209 208 210 214 216 213 209 199 192 193 198 200 196 195 197 203 207 207 206 204 205 210 214 212 209 209 210 212 211 205 206 224 236 228 214 212 215 216 217 219 228 243 257 272 290 300 300 301 310 327 343 353 1 11 27 47 59 64 69 70 67 63 58 59 64
279 195 193 195 195 195 199 201 196 195 196 195 197 203 207 210 205 193 188 191 194 191 191 196 201 202 199 200 201 198 199 205 206 202 204 205 201 197 194 197 210 217 203 195 198 202 203 202 201 208 224 243 265 286 296 293 295 305 321 335 347 0 14 28 41 51 63 72 68 62 59 55 54 59
284 196 185 186 183 178 180 183 176 172 172 171 178 192 200 209 208 193 185 188 190 189 192 197 198 195 193 195 197 192 185 186 188 196 207 205 194 189 192 196 202 205 201 200 193 181 177 180 185 197 213 229 253 266 261 266 280 293 311 329 336 350 7 22 38 50 61 72 72 66 61 55 52 57
38 193 175 170 165 161 162 168 172 168 160 155 169 191 196 206 212 193 184 187 189 185 189 195 193 190 191 192 192 189 185 177 172 180 197 198 194 195 196 195 201 204 201 206 194 170 171 189 194 194 203 227 271 277 253 248 269 283 298 323 334 349 4 17 42 60 62 70 76 74 67 60 56 56
75 86 151 148 147 150 152 158 168 169 163 161 173 192 192 200 209 193 183 186 188 184 185 189 188 187 190 189 188 189 191 186 177 175 180 185 192 200 202 200 205 208 211 220 212 184 181 201 199 185 171 123 34 320 299 253 272 281 288 312 333 357 6 15 49 73 68 70 78 79 76 71 65 63
69 72 128 136 137 145 149 153 161 165 168 177 196 231 221 198 199 195 187 185 185 184 185 186 186 187 190 190 188 187 191 194 193 189 184 177 176 186 196 198 201 209 223 234 228 207 200 204 198 188 175 133 130 281 303 351 89 256 283 299 309 341 3 12 57 85 76 67 75 84 87 83 75 70
76 64 94 119 132 143 149 152 157 164 171 185 206 238 265 222 195 193 189 183 181 182 184 184 185 187 189 190 186 183 185 192 194 190 187 180 170 169 174 173 172 186 208 219 215 207 205 203 198 194 186 155 149 210 268 70 86 83 317 293 287 266 2 21 71 91 80 64 73 89 92 90 87 84
68 67 75 91 110 128 140 146 156 178 197 208 214 231 261 259 196 185 183 181 179 179 181 182 184 186 188 187 185 182 181 181 179 177 178 178 176 177 180 176 167 165 170 168 163 179 191 195 199 200 198 195 204 224 247 327 356 1 359 316 290 216 183 183 98 94 87 76 82 92 94 96 97 95
24 36 50 66 86 104 123 131 133 173 205 220 223 226 245 258 203 180 178 179 178 178 179 182 183 183 183 183 183 182 181 180 180 182 182 179 177 178 180 182 183 179 173 167 165 173 182 189 198 205 210 227 247 260 277 293 301 338 32 25 336 167 166 175 144 100 100 92 85 87 87 90 93 91
16 17 14 11 23 38 78 124 296 298 294 280 241 226 238 251 212 185 180 180 179 178 179 180 180 180 180 182 184 183 179 178 180 184 182 179 178 174 167 165 166 170 173 180 195 212 212 208 219 230 240 251 255 251 232 236 262 37 67 59 36 139 152 159 156 106 122 121 96 84 78 76 77 74
15 19 18 8 354 352 0 359 329 304 304 318 311 253 241 244 220 193 182 179 178 179 178 178 177 176 176 180 185 184 179 176 177 177 176 175 174 172 167 162 160 163 168 177 191 203 201 201 222 235 236 239 240 222 178 197 218 85 74 73 76 114 140 148 137 110 134 143 117 81 67 72 77 65
14 20 24 22 13 354 345 353 353 337 309 302 314 309 264 237 216 191 176 174 175 176 175 173 172 172 175 179 183 185 183 181 179 177 177 178 177 175 176 179 181 182 183 186 193 193 185 194 217 227 215 219 225 220 206 203 195 106 75 91 107 116 130 144 147 145 149 144 103 50 51 70 69 47
13 17 24 33 38 32 17 4 351 344 331 276 282 301 281 224 199 184 176 174 173 172 170 169 168 171 174 177 180 184 187 186 182 179 178 177 178 177 176 176 177 180 185 196 209 213 214 225 237 233 224 224 218 210 207 199 172 143 102 117 136 138 137 142 153 166 174 177 166 94 92 79 53 52
15 18 23 32 39 41 42 40 18 351 344 256 255 279 268 211 186 178 175 173 170 168 167 166 167 169 173 176 178 181 181 180 178 176 175 175 174 174 171 168 171 175 179 189 202 214 230 243 240 228 230 231 211 201 201 194 173 164 153 138 149 147 140 133 129 133 141 148 149 126 110 79 50 75